[[{"header":{"parameterUnit":"m.s-1","parameterCategory":1,"la1":30.2991,"la2":30.254,"lo1":-89.0895,"lo2":-89.0444,"dy":0.0017,"dx":0.0017,"nx":28,"ny":28,"refTime":"2024-07-09T03:00:00:Z","depth":0,"parameterNumber":2,"parameterNumberName":"U-component_of_WINDS"},"data":[0,0,0,0,0,0,0,0,0,0,0,0,0,0,0,0,0,0,0,0,0,0,0,0,0,0,0,0,0,0,0,0,0,0,0,0,0,0,0,0,0,0,0,0,0,0,0,0,0,0,0,0,0,0,0,0,0,0,4.8636,4.864,0,4.8994,4.8998,4.9002,4.9053,4.905,4.9047,4.9043,4.9404,4.9416,4.9429,0,0,0,0,0,0,0,0,0,0,0,0,0,4.7989,4.8,4.8636,4.864,4.8645,4.8993,4.8998,4.9003,4.9054,4.905,4.9046,4.9042,4.94,4.9414,4.943,0,0,0,0,0,0,0,0,0,0,0,0,0,4.83,4.8004,4.8635,4.8712,4.8723,4.8992,4.8998,4.9004,4.9055,4.905,4.9045,4.904,4.9395,4.9413,4.9432,4.9648,0,0,4.949,4.9498,0,0,0,0,0,0,0,0,4.8283,4.8324,4.8696,4.8707,4.872,4.8974,4.8902,4.922,4.9056,4.8928,4.9043,4.9038,4.9264,4.9294,4.9371,4.9664,4.968,4.9491,4.9503,4.9511,4.9516,0,0,0,0,0,0,0,4.8261,4.8309,4.8777,4.8702,4.8716,4.8727,4.8765,4.8963,4.9119,4.8939,4.8944,4.8986,4.927,4.9353,4.938,4.9685,4.9491,4.9508,4.952,4.9527,5.0171,5.0176,0,0,0,0,0,0,4.8226,4.8291,4.8766,4.8788,4.8485,4.8742,4.8786,4.8897,4.9117,4.9146,4.8989,4.8987,4.9323,4.9358,4.9393,4.9659,4.9511,4.9529,4.954,5.0165,5.0172,5.0178,0,0,0,0,0,0,4.8212,4.8268,4.8751,4.8541,4.8603,4.8759,4.8883,4.8907,4.899,4.9156,4.9183,4.9046,4.9321,4.9366,4.9584,4.9672,4.9537,4.9555,5.0158,5.0167,5.0175,5.0192,0,0,0,0,0,0,4.8193,4.8263,4.8348,4.8542,4.8614,4.8938,4.8889,4.8917,4.9024,4.9023,4.9216,4.9243,4.932,4.9555,4.9603,4.9696,4.9569,5.0151,5.0162,5.0172,5.0184,5.02,5.0214,0,0,0,0,0,4.817,4.8338,4.8352,4.8409,4.8725,4.8943,4.8984,4.9071,4.9031,4.9116,4.9222,4.9237,4.9655,4.9577,4.9631,4.9731,5.0146,5.0159,5.0171,5.0178,5.0197,5.0214,0,0,0,0,0,0,4.8148,4.8365,4.8383,4.8619,4.8763,4.8952,4.9063,4.9089,4.9245,4.9238,4.9337,4.938,4.9593,4.9684,4.9593,4.995,4.9896,4.9921,4.9883,4.9903,4.9917,4.989,4.9585,0,0,0,0,0,4.8171,4.8333,4.8513,4.8703,4.8775,4.8906,4.9005,4.9059,4.9211,4.9271,4.9393,4.9538,4.9702,4.9807,4.9967,5.0198,5.0239,5.0293,5.0308,5.0319,5.0338,5.0465,5.049,5.022,5.022,5.022,0,0,4.8219,4.8358,4.8454,4.8702,4.882,4.8983,4.8957,4.9131,4.9252,4.9297,4.951,4.9604,4.9772,4.9997,5.0102,5.0079,5.0422,5.0336,5.0343,5.0357,5.048,5.0506,5.0528,5.0229,5.0227,5.0226,0,0,4.839,4.8513,4.8684,4.8803,4.8982,4.9068,4.9109,4.9295,4.9359,4.9575,4.9612,4.9756,5.0037,5.0155,5.0251,5.0465,5.0484,5.0515,5.0591,5.0713,5.0734,5.0753,5.0828,5.0853,5.0533,5.0534,5.0534,0,4.8427,4.8677,4.8768,4.8942,4.9048,4.9099,4.9272,4.9382,4.9603,4.9674,4.9647,4.9999,5.0116,5.0367,5.0419,5.0497,5.0544,5.0492,5.0724,5.0744,5.0764,5.0835,5.0863,5.0536,5.0536,5.0535,5.0535,0,4.8712,4.8884,4.9001,4.9215,4.9335,4.9507,4.9622,4.9733,4.9776,4.9865,5.0082,5.0224,5.0413,5.0477,5.052,5.0734,5.0714,5.0704,5.0652,5.079,5.0859,5.0888,5.0539,5.0538,5.0538,5.0537,0,0,4.8879,4.9141,4.9182,4.9279,4.948,4.9614,4.9787,4.9973,5.0065,5.0215,5.0361,5.0597,5.0589,5.0698,5.0755,5.0863,5.1021,5.0839,5.0845,5.0866,5.1262,5.1267,5.1298,5.1035,5.104,5.1045,5.1247,0,4.9072,4.9384,4.9471,4.9734,4.9892,4.9942,5.0092,5.023,5.0317,5.0462,5.0557,5.0722,5.07,5.0766,5.0875,5.0978,5.1101,5.0965,5.1168,5.1175,5.1123,5.1334,5.1341,5.1525,5.1275,5.128,5.1283,0,4.9339,4.9496,4.9775,4.9954,5.0024,5.0158,5.0335,5.0474,5.063,5.0686,5.0808,5.0855,5.1034,5.0973,5.122,5.1126,5.1214,5.1277,5.1286,5.1307,5.1236,5.1359,5.1586,5.1613,5.1327,5.1323,5.132,0,4.943,4.9711,4.9914,4.9996,5.0211,5.0303,5.0396,5.0548,5.0654,5.0808,5.0877,5.1049,5.1143,5.1273,5.1365,5.1312,5.1603,5.155,5.1651,5.1649,5.1709,5.1704,5.1952,5.1769,5.1768,5.1768,5.1767,0,4.9635,4.9804,4.9958,5.0083,5.0272,5.0369,5.0553,5.0647,5.0782,5.0924,5.0977,5.1108,5.1222,5.1368,5.144,5.1632,5.1674,5.1722,5.1739,5.1717,5.171,5.1775,5.1764,5.1775,5.1774,5.1772,5.1771,0,4.9769,4.988,5.0104,5.0289,5.0339,5.047,5.0627,5.0748,5.0837,5.1016,5.1063,5.1201,5.1376,5.148,5.1701,5.1749,5.196,5.1973,5.1908,5.1916,5.201,5.1999,5.2307,5.2351,5.214,5.2142,5.2143,0,4.9892,5.0023,5.0222,5.0322,5.0417,5.0577,5.0686,5.0786,5.0896,5.1084,5.1182,5.136,5.1508,5.1783,5.1902,5.207,5.2086,5.2182,5.2111,5.2084,5.2085,5.2075,5.2088,5.2193,5.2195,5.2196,5.2198,0,5.0098,5.0146,5.0302,5.0477,5.0606,5.0748,5.0889,5.0967,5.1091,5.1211,5.1392,5.1506,5.1732,5.1907,5.2085,5.2178,5.2208,5.2219,5.2251,5.2229,5.2185,5.2208,5.1939,5.2211,5.221,5.2209,5.2208,5.2208,5.023,5.0347,5.0506,5.0677,5.0794,5.0925,5.1048,5.1152,5.1305,5.1497,5.1546,5.1734,5.1885,5.2128,5.2225,5.2372,5.2356,5.2403,5.2415,5.2424,5.2426,5.2163,5.2405,5.2404,5.2404,5.2404,5.2404,0,5.0437,5.0541,5.0698,5.0895,5.1029,5.1047,5.1204,5.1314,5.148,5.1619,5.1764,5.197,5.214,5.2271,5.2445,5.2537,5.2554,5.2579,5.2572,5.2592,5.2431,5.2385,5.2561,5.2561,5.2561,5.2561,5.2561,5.2561,5.056,5.076,5.0827,5.1084,5.1187,5.1374,5.1461,5.1581,5.1693,5.1921,5.2063,5.2148,5.2284,5.2468,5.2623,5.2657,5.2718,5.2739,5.2775,5.2621,5.2604,5.2588,5.2545,5.2752,5.2753,5.2925,5.2927,5.2928]},{"header":{"parameterUnit":"m.s-1","parameterCategory":1,"la1":30.2991,"la2":30.254,"lo1":-89.0895,"lo2":-89.0444,"dy":0.0017,"dx":0.0017,"nx":28,"ny":28,"refTime":"2024-07-09T03:00:00:Z","depth":0,"parameterNumber":3,"parameterNumberName":"V-component_of_WINDS"},"data":[0,0,0,0,0,0,0,0,0,0,0,0,0,0,0,0,0,0,0,0,0,0,0,0,0,0,0,0,0,0,0,0,0,0,0,0,0,0,0,0,0,0,0,0,0,0,0,0,0,0,0,0,0,0,0,0,0,0,3.1656,3.1656,0,3.1664,3.1664,3.1664,3.1608,3.1606,3.1605,3.1603,3.1615,3.1616,3.1618,0,0,0,0,0,0,0,0,0,0,0,0,0,3.1594,3.1595,3.1656,3.1656,3.1656,3.1664,3.1664,3.1664,3.1608,3.1606,3.1604,3.1602,3.1614,3.1616,3.1618,0,0,0,0,0,0,0,0,0,0,0,0,0,3.1613,3.1596,3.1656,3.1629,3.1627,3.1664,3.1664,3.1664,3.1608,3.1606,3.1604,3.1601,3.1613,3.1616,3.1619,3.1683,0,0,3.1627,3.1628,0,0,0,0,0,0,0,0,3.1612,3.1616,3.1633,3.1631,3.1628,3.1632,3.1646,3.1671,3.1609,3.1615,3.1603,3.16,3.1623,3.1624,3.1631,3.1684,3.1684,3.1627,3.1629,3.163,3.1631,0,0,0,0,0,0,0,3.1611,3.1615,3.1659,3.1633,3.163,3.1617,3.1617,3.1651,3.1633,3.1615,3.1611,3.1612,3.1621,3.1629,3.1631,3.1684,3.1627,3.1629,3.1631,3.1632,3.1786,3.1789,0,0,0,0,0,0,3.1613,3.1614,3.1659,3.1659,3.1614,3.162,3.162,3.1634,3.1632,3.1629,3.1614,3.1609,3.1625,3.1628,3.1631,3.1703,3.163,3.1632,3.1634,3.1784,3.1787,3.1789,0,0,0,0,0,0,3.1612,3.1617,3.1659,3.1636,3.164,3.1624,3.1639,3.1635,3.1642,3.1631,3.1628,3.1625,3.1624,3.1628,3.1669,3.1703,3.1633,3.1636,3.1781,3.1785,3.1788,3.185,0,0,0,0,0,0,3.161,3.1617,3.1641,3.1637,3.1641,3.1696,3.1641,3.1637,3.1647,3.1641,3.1641,3.1639,3.1622,3.1666,3.1672,3.1705,3.1638,3.1778,3.1783,3.1787,3.1845,3.1856,3.1865,0,0,0,0,0,3.1608,3.166,3.1643,3.1649,3.1671,3.1698,3.1701,3.168,3.165,3.1674,3.1666,3.1639,3.1699,3.1671,3.1677,3.1712,3.1775,3.1781,3.1787,3.1841,3.1853,3.1864,0,0,0,0,0,0,3.1671,3.1659,3.164,3.1692,3.1696,3.1689,3.1718,3.1695,3.1709,3.1703,3.1677,3.1677,3.1723,3.1722,3.1691,3.1773,3.1732,3.1739,3.1771,3.1783,3.1793,3.179,3.164,0,0,0,0,0,3.169,3.1713,3.1702,3.1749,3.1752,3.1735,3.1746,3.1729,3.1733,3.1735,3.1731,3.1737,3.1756,3.177,3.1788,3.1846,3.1843,3.1873,3.1883,3.1891,3.1896,3.1923,3.1935,3.1808,3.1808,3.1808,0,0,3.1732,3.1728,3.1744,3.1761,3.1763,3.1786,3.1737,3.1765,3.1782,3.174,3.1777,3.1775,3.178,3.1829,3.185,3.183,3.1931,3.1898,3.1904,3.1905,3.193,3.1942,3.1953,3.1812,3.1811,3.181,0,0,3.1818,3.1819,3.1855,3.1857,3.186,3.1848,3.1857,3.1853,3.1848,3.1886,3.1854,3.1875,3.1911,3.1914,3.192,3.2006,3.198,3.2013,3.2063,3.209,3.21,3.2108,3.2136,3.2146,3.202,3.202,3.202,0,3.1868,3.1902,3.1878,3.1907,3.1914,3.1876,3.1912,3.1916,3.1925,3.1931,3.1908,3.195,3.1951,3.1998,3.2019,3.2027,3.2035,3.2012,3.21,3.2109,3.2116,3.2142,3.2153,3.2023,3.2023,3.2023,3.2022,0,3.1962,3.1986,3.2016,3.2023,3.2034,3.2067,3.2048,3.2063,3.2045,3.2035,3.2073,3.2073,3.2088,3.2099,3.2083,3.2144,3.213,3.2105,3.2063,3.2133,3.2156,3.2166,3.2029,3.2027,3.2026,3.2025,0,0,3.2087,3.2079,3.209,3.2091,3.209,3.2108,3.2139,3.2153,3.2164,3.2172,3.2196,3.2226,3.2201,3.2209,3.2193,3.2217,3.2281,3.2188,3.2187,3.2202,3.2344,3.2361,3.2373,3.2265,3.2267,3.2268,3.2342,0,3.2168,3.2218,3.2197,3.2249,3.2269,3.2233,3.226,3.2262,3.2254,3.2271,3.2263,3.2283,3.225,3.2254,3.2276,3.2268,3.2308,3.2263,3.2285,3.2286,3.2281,3.2385,3.2404,3.2474,3.2352,3.2353,3.2354,0,3.2268,3.2277,3.2331,3.2323,3.2331,3.2355,3.2365,3.2382,3.2383,3.2376,3.2383,3.2362,3.2391,3.2351,3.2391,3.236,3.2369,3.2366,3.2368,3.2367,3.2322,3.2384,3.2496,3.2505,3.2369,3.2368,3.2367,0,3.2349,3.2375,3.2409,3.2412,3.2406,3.2423,3.2421,3.2421,3.2429,3.2439,3.2443,3.2457,3.2464,3.2474,3.2456,3.243,3.2497,3.2457,3.249,3.2491,3.2504,3.2503,3.2616,3.2515,3.2515,3.2515,3.2515,0,3.2439,3.2472,3.2444,3.2465,3.2501,3.2477,3.2514,3.2509,3.2508,3.2527,3.2499,3.2517,3.2494,3.2511,3.2498,3.253,3.2535,3.2529,3.2524,3.2529,3.2529,3.2532,3.2525,3.2518,3.2517,3.2516,3.2516,0,3.2533,3.2517,3.2551,3.2542,3.254,3.2567,3.2559,3.2578,3.2568,3.2592,3.2597,3.2581,3.2599,3.2583,3.2601,3.2592,3.2634,3.2625,3.2633,3.2628,3.2661,3.2657,3.2777,3.279,3.2685,3.2686,3.2687,0,3.259,3.2614,3.2607,3.2617,3.2616,3.2633,3.2641,3.2619,3.2628,3.2631,3.2649,3.2665,3.2675,3.2705,3.2695,3.2708,3.2697,3.2738,3.2699,3.2702,3.2693,3.269,3.2691,3.2745,3.2746,3.2747,3.2748,0,3.2692,3.2681,3.2693,3.2702,3.2712,3.2718,3.2722,3.2732,3.2709,3.2722,3.2738,3.2746,3.2763,3.2777,3.2787,3.2786,3.2763,3.2761,3.2769,3.2772,3.2775,3.277,3.2651,3.2758,3.2757,3.2756,3.2756,3.2755,3.2766,3.2785,3.2781,3.2795,3.2796,3.28,3.2816,3.2807,3.282,3.283,3.2818,3.2837,3.2837,3.2847,3.2849,3.2864,3.2847,3.2859,3.2862,3.2864,3.2867,3.2775,3.2867,3.2866,3.2866,3.2866,3.2866,0,3.2863,3.2858,3.2871,3.2876,3.2887,3.2864,3.2867,3.2878,3.2895,3.2896,3.2906,3.2925,3.2938,3.293,3.2941,3.2955,3.2945,3.2959,3.2956,3.2955,3.2884,3.2874,3.2967,3.2967,3.2967,3.2967,3.2967,3.2967,3.2914,3.2943,3.2932,3.2961,3.2957,3.2975,3.2978,3.2981,3.2982,3.3003,3.3013,3.3008,3.3005,3.3015,3.3027,3.3024,3.3028,3.3045,3.3038,3.2971,3.2961,3.2951,3.2942,3.3047,3.3047,3.3108,3.3109,3.3109]}]]